Regional Weather Roundup
Issued by NWS State College, PA

Home | Current Version | Previous Version | Graphics & Text | Print | Product List | Glossary Off
Versions: 1 2 3 4 5 6 7 8 9 10 11 12 13 14 15 16 17 18 19 20 21 22 23 24 25 26 27 28 29 30 31 32 33 34 35 36 37 38 39 40 41 42 43 44 45 46 47 48 49 50

000
ASUS41 KCTP 060603
RWRCTP

REGIONAL WEATHER ROUNDUP
NATIONAL WEATHER SERVICE STATE COLLEGE PA
100 AM EST TUE DEC 06 2016

Note: "fair" indicates few or no clouds below 12,000 feet with no
significant weather and/or obstructions to visibility.

* = STATION THAT DOES NOT REPORT PRECIPITATION /E.G. RAIN...SNOW...ETC/
    THUNDER OR FOG.

PAZ002>004-007>009-013>016-020>023-029>032-060700-
WESTERN PENNSYLVANIA

CITY           SKY/WX    TMP DP  RH WIND       PRES   REMARKS
ERIE           CLOUDY    34  28  79 S7        30.09S
MEADVILLE      CLEAR     31  26  82 E6        30.05F
FRANKLIN*        N/A     27  21  80 E3        30.06F
NEW CASTLE     FAIR      26  25  96 E5        30.06F
BEAVER COUNTY  NOT AVBL
BUTLER*        CLOUDY    30  25  80 NE8       30.07F
PITTSBURGH INT CLOUDY    33  27  78 E6        30.03F
PITTSBURGH     CLOUDY    32  25  75 NE5       30.02F
INDIANA*       CLEAR     28  28 100 E5        30.09F
LATROBE        CLOUDY    27  27 100 MISG      30.05F
WASHINGTON CO* PTCLDY    30  25  80 NE7       30.01F
$$

PAZ004>006-010>012-017>019-024>028-033>037-041-042-045-046-049>053-060700-
CENTRAL PENNSYLVANIA

CITY           SKY/WX    TMP DP  RH WIND       PRES   REMARKS
BRADFORD       CLOUDY    31  30  96 CALM      30.05F
DUBOIS         PTCLDY    28  25  88 E5        30.04F FOG
CLEARFIELD     PTCLDY    26  26 100 N6        30.08F FOG
JOHNSTOWN      CLOUDY    31  26  82 E6        30.02F
ALTOONA        CLOUDY    29  26  89 CALM      30.08F
STATE COLLEGE  PTCLDY    30  26  86 CALM      30.09F
WILLIAMSPORT   CLEAR     34  28  79 CALM      30.12R
SELINSGROVE    CLOUDY    27  27 100 CALM      30.14S
FT INDIANTOWN  CLOUDY    32  31  98 CALM      30.12S
CAPITAL CITY   PTCLDY    34  28  79 W3        30.13S
HARRISBURG     CLOUDY    33  30  88 CALM      30.12S
YORK           PTCLDY    29  29 100 CALM      30.13R
$$

PAZ038>040-043-044-047-048-054-055-060>062-067>071-060700-
EASTERN PENNSYLVANIA

CITY           SKY/WX    TMP DP  RH WIND       PRES   REMARKS
SCRANTON       CLEAR     31  27  85 CALM      30.09S
MOUNT POCONO   CLEAR     28  23  81 W3        30.05R
ALLENTOWN      CLOUDY    31  26  82 W3        30.13R
QUAKERTOWN*    PTCLDY    32  28  86 N3        30.13S
READING        PTCLDY    31  26  82 CALM      30.13R
LANCASTER      PTCLDY    35  31  85 NW3       30.13R
COATESVILLE    PTCLDY    37  28  70 NW5       30.13R
POTTSTOWN      PTCLDY    33  29  85 N5        30.14R
BLUE BELL      CLOUDY    34  30  86 CALM      30.11S
DOYLESTOWN     CLOUDY    36  29  75 N5        30.12R
WILLOW GROVE   NOT AVBL
NORTH PHILA    PTCLDY    37  30  75 N8        30.14R
PHILADELPHIA   MOCLDY    40  30  67 N8        30.13R
$$



USA.gov is the U.S. government's official web portal to all federal, state and local government web resources and services.